EN

Hourly Weather Lebedevo

Today, 1 October, Thursday

Time Temperature Precipitation Wind Pressure Humidity
00:00 +12°C° 0 mm 1 mps 763 mmHg 91%
01:00 +12°C° 0 mm 1 mps 763 mmHg 91%
02:00 +11°C° 0 mm 1 mps 763 mmHg 91%
03:00 +11°C° 0 mm 1 mps 763 mmHg 91%
04:00 +11°C° 0 mm 1 mps 763 mmHg 91%
05:00 +11°C° 0 mm 1 mps 763 mmHg 91%
06:00 +11°C° 0 mm 1 mps 763 mmHg 91%
07:00 +12°C° 0 mm 1 mps 763 mmHg 86%
08:00 +14°C° 0 mm 1 mps 763 mmHg 81%
09:00 +16°C° 0 mm 1 mps 764 mmHg 78%
10:00 +18°C° 0 mm 1 mps 764 mmHg 75%
11:00 +19°C° 0 mm 1 mps 763 mmHg 72%
12:00 +18°C° 0 mm 2 mps 763 mmHg 69%
13:00 +19°C° 0 mm 1 mps 763 mmHg 69%
14:00 +20°C° 0 mm 1 mps 763 mmHg 68%
15:00 +20°C° 0 mm 1 mps 763 mmHg 68%
16:00 +18°C° 0 mm 1 mps 763 mmHg 74%
17:00 +16°C° 0 mm 1 mps 763 mmHg 80%
18:00 +13°C° 0 mm 0 mps 762 mmHg 85%
19:00 +12°C° 0 mm 0 mps 763 mmHg 86%
20:00 +12°C° 0 mm 0 mps 763 mmHg 87%
21:00 +12°C° 0 mm 0 mps 763 mmHg 88%
22:00 +11°C° 0 mm 0 mps 763 mmHg 89%
23:00 +11°C° 0 mm 0 mps 763 mmHg 89%

Tomorrow, 2 October, Friday

Time Temperature Precipitation Wind Pressure Humidity
00:00 +12°C° 0 mm 1 mps 763 mmHg 90%
01:00 +12°C° 0 mm 1 mps 763 mmHg 90%
02:00 +10°C° 0 mm 0 mps 763 mmHg 90%
03:00 +10°C° 0 mm 0 mps 763 mmHg 91%
04:00 +10°C° 0 mm 0 mps 763 mmHg 91%
05:00 +10°C° 0 mm 0 mps 763 mmHg 91%
06:00 +10°C° 0 mm 0 mps 762 mmHg 91%
07:00 +11°C° 0 mm 0 mps 762 mmHg 86%
08:00 +12°C° 0 mm 0 mps 763 mmHg 80%
09:00 +15°C° 0 mm 1 mps 763 mmHg 75%
10:00 +16°C° 0 mm 1 mps 763 mmHg 70%
11:00 +18°C° 0 mm 1 mps 762 mmHg 65%
12:00 +19°C° 0 mm 1 mps 762 mmHg 60%
13:00 +19°C° 0 mm 1 mps 762 mmHg 59%
14:00 +19°C° 0 mm 1 mps 762 mmHg 58%
15:00 +19°C° 0 mm 1 mps 762 mmHg 57%
16:00 +18°C° 0 mm 1 mps 762 mmHg 64%
17:00 +15°C° 0 mm 1 mps 762 mmHg 70%
18:00 +13°C° 0 mm 1 mps 762 mmHg 77%
19:00 +13°C° 0 mm 1 mps 762 mmHg 80%
20:00 +12°C° 0 mm 1 mps 762 mmHg 83%
21:00 +12°C° 0 mm 1 mps 762 mmHg 86%
22:00 +11°C° 0 mm 1 mps 762 mmHg 87%
23:00 +11°C° 0 mm 1 mps 762 mmHg 88%

Day after tomorrow, 3 October, Saturday

Time Temperature Precipitation Wind Pressure Humidity
00:00 +11°C° 0 mm 1 mps 762 mmHg 89%
01:00 +11°C° 0 mm 1 mps 762 mmHg 90%
02:00 +10°C° 0 mm 2 mps 762 mmHg 90%
03:00 +10°C° 0 mm 2 mps 762 mmHg 91%
04:00 +9°C° 0 mm 2 mps 762 mmHg 91%
05:00 +9°C° 0 mm 2 mps 762 mmHg 92%
06:00 +8°C° 0 mm 2 mps 762 mmHg 92%
07:00 +10°C° 0 mm 2 mps 762 mmHg 86%
08:00 +12°C° 0 mm 2 mps 762 mmHg 80%
09:00 +13°C° 0 mm 2 mps 762 mmHg 74%
10:00 +14°C° 0 mm 2 mps 762 mmHg 69%
11:00 +15°C° 0 mm 2 mps 762 mmHg 63%
12:00 +16°C° 0 mm 3 mps 762 mmHg 57%
13:00 +16°C° 0 mm 3 mps 762 mmHg 59%
14:00 +16°C° 0 mm 3 mps 762 mmHg 62%
15:00 +16°C° 0 mm 3 mps 762 mmHg 64%
16:00 +14°C° 0 mm 3 mps 762 mmHg 67%
17:00 +13°C° 0 mm 3 mps 762 mmHg 70%
18:00 +12°C° 0 mm 3 mps 762 mmHg 72%
19:00 +13°C° 0 mm 2 mps 762 mmHg 71%
20:00 +13°C° 0 mm 2 mps 763 mmHg 69%
21:00 +12°C° 0 mm 1 mps 763 mmHg 67%
22:00 +12°C° 0 mm 2 mps 763 mmHg 68%
23:00 +10°C° 0 mm 2 mps 763 mmHg 69%

4 October, Sunday

Time Temperature Precipitation Wind Pressure Humidity
00:00 +10°C° 0 mm 3 mps 764 mmHg 70%
01:00 +9°C° 0 mm 3 mps 764 mmHg 70%
02:00 +9°C° 0 mm 2 mps 764 mmHg 71%
03:00 +8°C° 0 mm 2 mps 764 mmHg 71%
04:00 +8°C° 0 mm 2 mps 765 mmHg 71%
05:00 +7°C° 0 mm 2 mps 765 mmHg 71%
06:00 +7°C° 0 mm 2 mps 765 mmHg 71%
07:00 +7°C° 0 mm 2 mps 765 mmHg 70%
08:00 +7°C° 0 mm 2 mps 765 mmHg 70%
09:00 +7°C° 0 mm 2 mps 765 mmHg 69%
10:00 +8°C° 0 mm 2 mps 765 mmHg 65%
11:00 +9°C° 0 mm 2 mps 766 mmHg 61%
12:00 +9°C° 0 mm 2 mps 766 mmHg 57%
13:00 +9°C° 0 mm 2 mps 766 mmHg 55%
14:00 +9°C° 0 mm 2 mps 765 mmHg 54%
15:00 +9°C° 0 mm 2 mps 765 mmHg 53%
16:00 +8°C° 0 mm 2 mps 765 mmHg 57%
17:00 +8°C° 0 mm 1 mps 766 mmHg 61%
18:00 +7°C° 0 mm 1 mps 766 mmHg 64%
19:00 +6°C° 0 mm 1 mps 766 mmHg 67%
20:00 +5°C° 0 mm 1 mps 766 mmHg 69%
21:00 +5°C° 0 mm 1 mps 766 mmHg 71%
22:00 +4°C° 0 mm 1 mps 766 mmHg 73%
23:00 +4°C° 0 mm 1 mps 766 mmHg 75%

5 October, Monday

Time Temperature Precipitation Wind Pressure Humidity
00:00 +4°C° 0 mm 1 mps 766 mmHg 76%
01:00 +3°C° 0 mm 1 mps 766 mmHg 78%
02:00 +2°C° 0 mm 0 mps 766 mmHg 79%
03:00 +2°C° 0 mm 0 mps 766 mmHg 80%
04:00 +1°C° 0 mm 0 mps 766 mmHg 81%
05:00 +1°C° 0 mm 0 mps 766 mmHg 82%
06:00 +1°C° 0 mm 0 mps 766 mmHg 83%
07:00 +4°C° 0 mm 1 mps 766 mmHg 76%
08:00 +5°C° 0 mm 1 mps 766 mmHg 70%
09:00 +7°C° 0 mm 1 mps 766 mmHg 63%
10:00 +8°C° 0 mm 1 mps 766 mmHg 58%
11:00 +8°C° 0 mm 2 mps 766 mmHg 54%
12:00 +9°C° 0 mm 2 mps 766 mmHg 50%
13:00 +10°C° 0 mm 2 mps 765 mmHg 52%
14:00 +10°C° 0 mm 2 mps 765 mmHg 53%
15:00 +10°C° 0 mm 2 mps 764 mmHg 55%
16:00 +9°C° 0 mm 2 mps 764 mmHg 62%
17:00 +8°C° 0 mm 2 mps 764 mmHg 68%
18:00 +6°C° 0 mm 2 mps 763 mmHg 75%
19:00 +6°C° 0 mm 2 mps 763 mmHg 77%
20:00 +5°C° 0 mm 3 mps 763 mmHg 79%
21:00 +4°C° 0 mm 3 mps 763 mmHg 80%
22:00 +5°C° 0 mm 3 mps 762 mmHg 78%
23:00 +5°C° 0 mm 4 mps 762 mmHg 75%

6 October, Tuesday

Time Temperature Precipitation Wind Pressure Humidity
00:00 +6°C° 0 mm 4 mps 762 mmHg 72%
01:00 +6°C° 0 mm 4 mps 761 mmHg 71%
02:00 +6°C° 0 mm 4 mps 761 mmHg 70%
03:00 +6°C° 0 mm 4 mps 760 mmHg 70%
04:00 +6°C° 0 mm 4 mps 760 mmHg 69%
05:00 +6°C° 0 mm 5 mps 760 mmHg 69%
06:00 +6°C° 0 mm 5 mps 759 mmHg 69%
07:00 +7°C° 0 mm 5 mps 759 mmHg 69%
08:00 +8°C° 0 mm 5 mps 758 mmHg 69%
09:00 +9°C° 0 mm 6 mps 758 mmHg 68%
10:00 +9°C° 0.3 mm 5 mps 758 mmHg 73%
11:00 +9°C° 0.3 mm 5 mps 758 mmHg 78%
12:00 +10°C° 0.3 mm 4 mps 757 mmHg 83%
13:00 +10°C° 0.1 mm 4 mps 757 mmHg 80%
14:00 +10°C° 0.1 mm 4 mps 757 mmHg 78%
15:00 +11°C° 0.1 mm 4 mps 757 mmHg 75%
16:00 +11°C° 0.2 mm 4 mps 756 mmHg 77%
17:00 +11°C° 0.2 mm 4 mps 756 mmHg 78%
18:00 +10°C° 0.2 mm 4 mps 756 mmHg 79%
19:00 +10°C° 0 mm 4 mps 756 mmHg 80%
20:00 +10°C° 0 mm 4 mps 756 mmHg 81%
21:00 +9°C° 0 mm 3 mps 755 mmHg 82%
22:00 +9°C° 0 mm 3 mps 755 mmHg 82%
23:00 +9°C° 0 mm 3 mps 755 mmHg 81%
Show more

We Need Your Consent

Meteoprog and our Service Providers may store and access personal data such as cookies, device identifiers or other similar technologies on your device and process such data to personalise content and ads, as well as provide social media features and to analyse the traffic.

  • Store and/or access information on your device

    Cookies, device identifiers or other information can be stored or accessed on your device for the purposes indicated above.

  • Personalised ads and content, ad and content measurement, audience insights, and products development

    Ads and content can be personalised based on a profile. More data can be added to better personalise ads and content. Ad and content performance can be measured. Insights about the audience who saw the ads and content can be derived. Such data can be used to develop or improve user’s experience, systems and software.

By clicking ‘I Agree’ you will allow the use of indicated cookies, device identifiers, web beacons or other similar technologies. Your settings can be changed in the browser on your device.

For certain purposes, legitimate interests may be relied on, rather than consent. You can read more about this in our Privacy and Cookie Policy.